Temp
23 23 24 26 25 23 27 27 29 32 34 36 36 34 32 31 31 26 28 27 26 24 22 21 21 21 21 21 21 21 20 20 21 21 21 21 21 21 21 21 21 21 21 21 21 21 21 21 21
25 26 28 27 25 24 26 26 29 31 35 35 34 32 32 29 30 29 28 27 26 25 24 22 22 21 21 21 21 21 21 21 21 21 21 21 21 21 21 21 21 21 21 21 21 21 21 21 21
24 28 25 25 25 26 25 27 29 33 35 35 31 32 32 30 31 30 28 28 27 26 24 21 22 21 21 21 21 21 21 21 21 21 21 21 21 21 21 21 21 21 22 22 21 21 21 21 22
28 27 27 24 24 25 25 28 33 34 34 33 32 31 32 32 31 30 29 28 27 25 23 21 21 21 21 21 21 21 21 21 21 21 21 21 21 21 21 21 21 21 21 22 22 21 21 21 22
28 26 24 24 24 23 24 32 32 33 32 32 32 31 31 31 31 31 29 27 27 25 23 22 21 21 21 21 21 21 21 21 21 21 21 21 21 21 21 21 21 21 22 21 21 21 21 22 23
24 24 26 26 26 24 29 30 31 31 32 31 32 31 31 31 31 30 29 27 27 26 24 22 21 21 21 21 21 21 21 21 21 21 21 21 21 21 21 21 21 21 21 21 21 21 21 23 23
26 26 27 29 27 26 28 28 31 31 32 31 32 29 31 32 31 30 29 28 28 26 25 23 22 21 21 21 21 20 21 21 21 22 21 21 21 21 21 21 21 21 21 21 22 23 23 23 24
28 27 28 30 28 26 29 28 27 30 30 32 33 29 30 32 31 30 28 25 28 28 26 25 23 22 22 21 21 21 21 21 22 22 22 22 21 21 21 21 21 21 22 22 23 23 24 25 25
29 27 29 28 30 27 29 27 25 29 32 31 33 32 32 32 31 29 30 26 28 28 27 26 24 23 23 22 21 21 22 23 23 23 22 22 23 22 22 22 22 22 23 23 23 24 24 24 25
24 28 29 32 31 29 29 29 26 29 32 31 33 33 32 32 29 29 29 29 30 27 25 25 24 24 24 24 23 22 23 22 23 23 23 24 24 24 23 23 23 24 24 24 23 23 24 24 24
28 31 32 31 32 30 28 27 27 30 31 31 31 31 32 33 32 31 30 30 30 27 26 26 25 25 26 25 24 23 24 24 24 24 24 24 25 25 24 24 23 23 23 23 23 24 24 24 25
25 33 34 32 32 30 28 27 27 27 28 33 32 32 32 33 33 31 30 30 27 27 27 27 25 25 25 25 24 24 25 25 25 25 26 25 25 25 24 23 24 25 23 24 24 25 26 27 27
29 33 34 32 32 31 31 29 27 25 23 32 32 32 32 33 33 33 32 32 28 27 27 27 25 26 26 26 25 25 26 26 26 25 25 25 26 25 24 26 25 24 24 24 24 24 26 26 27
33 34 34 34 32 32 32 28 29 25 23 30 32 32 32 33 33 33 32 32 31 28 27 27 26 26 26 26 27 27 27 26 26 26 25 25 25 25 22 24 23 26 26 26 27 26 26 27 27
34 32 34 34 33 33 32 29 29 30 28 30 32 32 33 33 33 33 32 31 31 30 28 27 26 26 25 26 27 26 27 26 26 26 25 25 25 25 24 25 25 25 26 25 25 25 26 26 26
34 34 34 35 34 33 31 28 29 29 30 31 31 32 33 33 32 32 32 31 30 29 28 28 28 26 26 26 26 26 26 26 26 25 25 25 25 25 24 24 26 25 26 25 25 26 26 27 27
35 34 34 35 35 34 32 25 25 30 30 31 31 32 33 33 32 32 31 31 30 29 28 28 27 27 26 26 26 25 25 26 26 26 25 25 25 25 25 25 26 25 25 26 26 26 27 27 27
34 35 34 35 36 34 31 29 26 29 30 30 30 31 33 33 32 32 31 31 29 28 27 28 27 27 26 26 26 26 25 25 26 25 25 25 25 25 25 25 26 26 25 25 26 27 27 27 28
37 37 32 32 30 34 33 28 29 30 30 29 30 30 32 33 32 31 31 31 29 28 27 27 27 26 25 26 26 27 27 26 25 25 25 25 25 25 25 25 25 26 25 26 26 26 26 27 27
36 36 35 33 32 26 31 29 29 30 30 28 30 30 32 33 32 31 31 31 30 28 27 27 26 26 25 26 26 27 27 27 26 26 25 25 25 25 25 25 25 25 25 26 26 26 26 28 28
36 36 34 33 29 24 25 27 23 28 28 25 24 25 30 33 31 31 30 31 30 28 27 26 25 25 25 26 26 27 27 27 26 26 25 26 26 25 25 25 25 25 26 25 26 26 27 26 28
35 38 34 34 33 29 26 29 27 29 28 26 25 25 24 31 31 31 29 31 30 28 27 26 25 25 25 25 26 27 27 27 27 27 26 26 26 26 25 25 25 24 25 26 26 27 27 26 27
36 38 35 37 36 36 36 35 28 27 26 25 22 24 24 25 31 30 30 30 30 28 27 26 25 24 25 25 26 27 26 26 26 26 26 25 26 26 25 25 25 25 24 25 25 26 26 26 26
37 37 37 36 36 34 36 35 28 27 23 26 26 24 21 22 30 29 30 30 30 29 28 26 25 24 25 25 25 25 26 25 25 25 26 25 25 25 25 25 25 24 25 25 25 26 26 26 26
35 35 34 33 34 34 38 36 28 24 25 24 28 24 21 21 23 27 30 30 30 29 28 26 25 25 25 25 25 25 25 25 25 26 26 26 26 26 25 25 25 24 24 24 25 25 25 25 26
35 35 34 32 33 34 37 35 28 25 25 30 32 27 25 26 23 23 31 29 30 30 29 27 25 25 24 25 25 25 25 25 26 26 27 27 26 24 25 25 25 25 25 25 25 25 25 26 26
34 34 37 36 36 35 33 30 30 29 27 27 27 27 27 26 27 26 29 29 31 30 29 28 26 25 25 25 25 25 25 25 26 27 27 27 26 25 25 24 25 25 25 25 24 25 25 25 25
34 36 34 35 32 34 33 30 30 29 25 24 23 23 22 21 22 21 21 21 31 30 30 29 26 26 25 26 25 25 25 25 25 26 27 27 26 26 25 24 25 26 25 25 25 25 25 25 25
33 32 34 35 36 34 31 28 31 28 25 22 21 21 21 20 20 20 19 19 23 27 29 30 28 27 26 26 26 26 25 25 25 25 26 27 26 25 25 26 25 26 26 26 25 25 25 25 25
34 33 34 33 33 35 28 26 28 26 23 22 20 20 21 20 19 19 19 18 17 18 21 24 26 29 28 27 27 26 26 26 25 25 25 26 26 26 26 25 26 26 25 26 25 25 26 25 25
Height
773 774 775 775 794 799 794 787 762 754 746 731 731 746 763 762 769 810 798 805 812 818 822 825 827 830 832 834 835 836 837 838 838 838 838 838 839 841 842 843 844 843 843 843 845 846 847 848 848
774 775 772 773 794 808 795 781 772 753 734 734 743 753 764 781 770 786 798 806 813 819 824 827 829 832 835 836 837 838 839 840 839 839 840 841 842 843 844 845 846 846 846 848 848 849 849 850 849
773 771 780 785 787 797 794 776 764 745 738 743 762 761 764 782 779 786 799 805 812 819 825 828 832 834 837 839 840 841 841 841 842 842 843 844 845 846 847 847 849 849 850 850 851 851 851 852 852
770 772 773 792 789 788 785 769 750 746 744 752 759 776 771 775 782 790 798 805 813 821 827 830 833 836 838 840 841 843 843 843 844 845 845 846 847 848 849 849 851 851 851 851 851 852 853 855 855
771 774 785 791 798 791 778 754 750 755 758 761 763 780 781 781 788 793 801 807 815 824 829 832 835 837 839 841 842 844 845 846 847 848 848 849 850 851 851 852 853 853 852 852 853 854 855 857 858
780 776 787 790 793 788 765 758 757 766 762 768 773 779 784 787 791 796 805 811 815 822 830 834 837 839 840 842 844 845 847 848 849 849 850 851 852 852 853 854 855 855 855 856 856 856 857 858 859
779 781 779 774 786 785 775 766 765 767 768 775 773 791 785 788 793 800 806 811 817 821 829 835 838 840 842 844 845 847 848 849 849 850 850 851 853 854 855 856 857 858 858 858 858 859 859 860 860
765 773 776 769 780 792 772 774 773 772 776 766 769 793 791 788 793 801 806 818 818 819 825 832 837 841 843 846 847 849 849 850 850 851 852 853 854 856 857 857 858 859 860 860 862 863 864 863 862
758 781 776 773 770 783 770 781 781 769 768 769 768 777 782 788 794 805 808 817 817 821 826 832 837 841 843 846 850 852 852 851 852 853 855 856 855 858 859 859 859 860 862 864 867 868 867 868 866
777 775 768 747 754 769 770 776 783 779 772 773 772 779 786 788 796 806 811 815 815 823 829 835 836 840 843 846 849 849 852 853 854 856 856 854 857 859 860 860 861 864 866 869 869 868 863 867 868
762 766 751 752 749 760 773 781 781 779 781 775 779 782 785 788 792 801 809 813 815 822 828 834 836 840 843 845 850 853 852 853 855 856 857 857 858 859 861 863 868 872 868 870 868 868 866 865 867
778 744 741 749 751 764 775 778 784 783 779 767 776 783 786 788 790 798 805 810 816 822 827 833 837 840 842 844 848 849 851 854 855 857 857 859 861 863 865 866 871 868 868 862 865 867 868 867 866
759 746 738 747 750 760 763 774 785 789 769 770 778 785 788 788 790 794 801 808 816 823 829 832 838 840 844 845 848 850 852 855 856 857 858 860 862 866 865 862 869 871 869 865 868 866 865 867 868
743 741 742 746 752 754 762 774 775 789 783 778 781 786 788 788 790 795 801 808 815 822 829 833 838 841 844 845 846 850 853 855 856 858 859 861 865 870 870 870 870 869 869 868 866 865 866 868 870
739 757 747 744 747 755 758 780 784 774 782 783 781 784 785 788 793 797 803 810 817 822 828 833 840 844 845 847 850 854 854 856 857 859 862 862 866 869 870 870 869 869 869 870 866 867 870 871 871
746 743 759 739 740 749 761 796 781 778 777 780 781 782 784 787 794 798 804 811 818 822 828 833 838 845 848 849 853 853 852 856 859 859 862 863 865 869 870 869 868 871 870 871 870 869 871 871 871
738 758 753 746 730 744 756 794 787 774 777 780 782 782 783 787 793 799 804 811 819 822 828 833 837 843 848 850 854 855 856 856 859 860 862 863 865 866 868 870 869 873 872 871 871 871 871 871 872
752 748 747 745 733 741 762 777 779 774 775 778 782 782 782 787 793 801 806 811 819 823 829 833 838 843 847 850 854 856 858 858 859 860 862 863 865 866 867 869 869 870 871 873 872 872 872 873 871
722 724 747 753 750 741 755 779 778 776 775 780 783 785 783 786 792 802 806 811 819 824 829 833 836 842 846 848 852 852 854 857 859 860 862 862 864 866 866 868 870 871 871 872 874 874 873 872 874
726 730 740 749 745 773 757 781 782 777 780 784 783 785 784 784 791 800 805 810 816 823 829 833 835 840 846 847 848 851 852 855 857 860 862 863 864 865 867 867 870 872 872 874 873 873 873 872 872
728 727 738 748 764 774 794 791 811 786 783 793 792 794 782 782 791 797 802 806 813 820 827 831 835 838 843 846 847 849 851 854 857 860 860 862 864 865 865 868 869 870 873 873 874 874 873 872 873
735 709 737 735 753 785 781 795 796 783 785 797 797 795 793 783 788 796 804 803 808 816 824 829 833 836 840 844 846 848 850 852 853 854 858 861 863 864 865 867 871 874 874 874 874 874 874 873 873
724 702 727 718 730 732 736 757 785 784 800 798 798 795 796 795 788 792 797 801 806 813 820 826 831 834 838 841 845 847 849 851 855 853 856 859 862 864 865 867 870 869 872 872 874 875 875 876 874
708 713 715 721 727 759 736 747 793 791 800 788 789 790 799 800 786 795 796 799 803 810 815 823 828 832 836 839 843 845 850 850 853 855 853 860 860 864 865 867 869 868 870 871 872 874 874 875 875
717 729 753 764 760 761 717 731 777 784 775 782 780 791 804 789 793 794 795 796 801 806 812 819 825 830 833 836 840 843 847 850 852 854 854 858 854 861 866 866 867 869 870 870 873 873 873 874 874
724 725 742 777 769 753 719 745 777 773 767 772 765 778 788 787 792 794 789 792 797 801 808 814 821 826 830 834 837 840 842 846 848 850 853 854 859 865 866 868 867 869 871 872 872 873 873 874 874
724 733 707 728 724 742 743 764 760 762 776 778 783 782 787 792 788 788 785 791 791 799 803 809 816 822 826 830 834 838 840 842 844 847 850 854 859 864 865 868 869 868 870 872 871 871 871 873 875
720 713 742 725 764 760 750 766 764 768 785 792 798 798 799 795 787 788 793 797 787 794 798 803 810 817 821 826 830 833 836 838 841 845 848 852 857 856 856 862 866 864 867 870 870 868 869 871 872
733 738 723 719 724 746 772 784 747 768 781 796 801 799 799 799 797 793 792 797 787 797 798 799 803 810 817 821 824 827 831 834 838 842 845 849 854 857 858 858 861 862 864 867 868 868 868 869 871
716 726 725 743 746 719 771 793 764 775 789 795 804 802 801 800 803 801 802 797 807 795 805 799 804 802 808 813 816 819 824 828 832 837 842 846 848 852 853 856 857 858 863 865 866 865 865 868 869
Wind_Speed
11 10 10 10 3 2 0 5 2 10 7 15 18 19 17 18 10 15 32 28 26 23 20 17 18 16 16 15 14 13 13 12 13 13 13 14 13 13 13 12 14 15 16 17 17 17 17 17 17
12 10 13 2 4 3 3 4 6 1 15 22 22 20 17 24 26 27 26 30 27 24 21 18 19 17 16 16 16 14 13 13 13 14 12 12 12 13 13 13 14 15 17 16 16 16 17 15 16
12 13 1 2 3 1 2 1 9 8 15 20 20 17 15 23 26 28 33 33 27 26 22 19 20 17 17 16 16 13 13 14 14 13 14 13 13 13 13 14 16 15 17 17 17 16 16 15 17
7 4 3 3 6 3 3 8 11 18 19 21 21 18 22 24 31 36 35 36 31 28 22 19 20 16 17 15 15 14 14 14 14 15 15 15 14 13 14 15 16 16 15 15 16 16 15 13 17
6 2 4 1 6 4 6 11 7 13 18 16 24 24 19 29 30 30 31 35 33 25 23 18 19 16 17 15 15 14 14 14 15 14 15 14 15 14 14 16 16 16 15 18 16 16 14 15 16
1 2 2 6 8 5 3 10 5 16 21 20 25 23 22 29 27 31 30 34 30 27 23 18 16 16 16 15 15 15 14 14 14 15 14 15 15 14 15 16 16 17 15 15 17 14 15 15 16
3 5 3 12 11 5 6 8 7 12 18 18 18 21 20 23 27 29 30 25 28 27 24 17 15 15 15 14 14 15 14 13 13 14 15 16 15 14 15 16 17 16 16 15 15 15 15 16 17
5 3 2 6 11 4 9 5 9 2 7 13 17 18 21 25 30 25 23 17 25 29 24 24 19 15 15 13 13 13 13 13 13 14 14 17 16 15 16 18 17 17 17 15 15 16 17 21 21
4 4 3 1 17 10 11 6 4 8 9 2 11 22 25 29 34 22 26 26 20 21 25 24 22 20 18 15 13 12 10 12 16 16 14 14 17 14 13 15 16 17 16 15 14 14 12 12 13
2 3 6 4 16 17 14 10 4 3 12 6 23 26 30 28 40 28 14 14 18 29 25 22 20 22 19 14 19 16 13 8 7 10 10 15 18 15 14 15 16 15 13 12 12 14 11 7 4
7 2 4 14 17 19 16 11 4 9 10 18 25 26 24 26 30 28 23 22 20 35 29 20 23 18 16 15 20 14 18 11 7 6 11 11 15 18 16 17 15 12 7 4 3 8 4 7 12
4 4 8 13 19 16 15 10 8 0 2 14 24 24 21 20 19 30 26 26 33 26 23 20 17 12 17 17 21 21 20 16 12 11 13 16 13 8 11 8 12 14 13 6 4 8 7 9 13
8 2 12 18 17 16 20 15 12 3 10 10 23 22 21 18 21 23 26 24 36 29 23 22 19 17 13 10 17 19 17 16 16 9 7 13 10 13 13 9 8 9 13 6 11 9 6 3 11
3 5 13 12 11 15 14 16 17 12 10 7 21 22 21 19 19 20 22 22 19 31 24 21 15 13 8 11 17 16 14 14 16 13 9 13 13 10 10 3 7 6 13 6 8 11 8 6 10
10 9 16 16 16 15 13 13 13 11 25 16 23 21 20 18 22 19 20 21 19 22 25 22 15 11 9 14 15 6 10 8 17 13 8 11 11 9 12 6 8 6 3 5 4 5 3 0 7
19 9 9 16 21 14 12 13 15 13 17 19 23 19 19 19 23 20 20 21 21 19 24 20 20 16 12 12 7 18 8 13 13 16 10 5 7 7 4 5 7 9 3 5 5 4 5 8 11
15 15 17 8 20 22 12 11 2 15 17 21 17 18 19 18 21 19 23 23 20 22 23 16 23 20 17 11 10 11 17 7 12 16 12 9 5 3 5 5 4 5 2 7 7 4 3 4 6
18 20 16 18 15 14 15 19 18 14 16 19 16 15 19 19 19 21 22 24 23 22 22 15 21 19 19 13 10 12 14 10 13 12 12 10 7 4 5 2 3 5 8 10 8 3 5 3 8
21 20 13 6 11 22 17 19 19 19 18 17 15 15 18 19 22 22 23 24 23 22 23 16 23 20 16 13 16 13 14 13 12 13 11 7 9 5 6 5 8 5 1 7 4 3 5 3 4
24 9 10 11 5 9 12 17 5 17 14 8 16 14 16 18 17 21 22 26 25 25 22 19 23 24 16 16 13 8 9 18 14 13 9 9 7 5 3 5 9 6 7 3 2 2 10 3 9
24 17 14 13 16 12 21 12 10 18 16 6 1 10 10 18 18 16 18 25 27 27 24 22 23 24 20 17 11 4 5 14 19 10 11 9 8 6 2 5 4 5 5 4 4 1 5 9 3
22 18 16 27 23 11 30 8 24 21 20 15 13 12 13 11 15 19 20 20 27 28 26 24 22 24 22 12 13 11 9 10 16 17 16 9 9 8 6 5 6 11 5 9 5 0 4 3 7
19 18 22 18 13 13 19 8 9 13 18 17 15 11 13 17 19 13 22 25 25 29 28 27 23 24 21 17 10 15 11 2 2 16 13 13 8 7 8 8 6 7 6 8 5 3 1 6 7
17 21 9 11 11 13 15 13 7 7 5 19 17 15 13 19 12 20 26 27 20 31 30 28 26 24 22 21 14 17 9 7 2 11 14 13 12 10 12 10 8 5 6 11 4 3 1 4 4
18 19 11 10 12 11 16 16 8 6 11 6 21 15 27 22 7 12 21 23 24 32 30 29 27 24 22 22 18 14 10 9 5 10 10 15 10 15 14 14 13 8 8 6 7 7 5 5 5
19 21 11 16 14 13 19 3 9 14 20 6 10 25 18 13 8 18 24 18 21 33 32 31 29 26 24 23 21 19 16 10 9 9 10 8 8 7 13 11 11 11 11 9 8 6 6 10 6
17 20 19 15 17 15 9 14 17 19 11 9 5 9 11 11 27 21 15 29 25 30 33 32 32 27 25 24 22 19 18 17 12 13 14 10 10 11 5 7 10 7 9 9 10 9 10 5 7
12 19 16 15 16 14 12 16 13 17 13 9 6 10 12 15 13 13 15 21 30 24 33 32 34 30 28 25 24 22 21 21 20 12 11 11 6 16 5 7 11 10 11 11 10 11 9 11 10
13 12 17 19 15 13 8 7 14 14 10 7 9 13 13 10 11 9 15 28 21 5 13 27 33 30 26 26 25 24 24 22 19 16 13 17 11 10 13 12 16 14 12 13 13 10 6 11 10
17 17 16 13 19 12 6 6 11 13 10 9 9 13 14 11 11 11 13 27 18 26 22 12 6 29 27 27 27 27 23 23 22 21 19 18 17 15 13 11 12 13 14 12 14 13 11 11 11
Wind_Direction
183 200 223 244 239 66 184 253 44 96 123 87 70 72 71 43 74 109 136 130 133 130 130 126 129 118 110 107 103 97 100 99 98 97 99 94 96 99 95 93 93 94 88 87 90 93 93 95 94
183 207 243 322 259 126 148 269 48 201 94 87 76 69 67 84 102 112 122 133 130 131 129 127 125 116 110 105 105 101 101 101 95 101 94 102 98 101 105 99 94 92 92 91 92 94 93 92 96
243 230 36 254 258 185 104 116 173 140 111 97 84 71 96 111 123 121 135 139 131 129 127 125 124 117 113 113 111 104 102 104 99 101 102 101 104 103 99 99 96 95 95 97 95 93 93 96 99
224 15 259 250 28 336 299 181 156 128 101 105 105 93 104 114 114 128 138 120 118 123 127 125 122 117 114 110 108 103 103 104 104 105 104 103 104 103 102 101 98 95 102 106 99 97 97 100 107
213 191 240 156 88 274 249 169 49 130 73 96 110 118 109 108 125 128 122 122 126 123 125 125 122 118 116 113 110 109 106 106 105 106 104 103 103 105 100 98 96 100 106 107 108 102 106 111 114
328 228 266 102 127 223 116 32 84 92 95 108 117 111 111 124 138 125 123 127 127 127 124 125 122 119 117 115 113 114 112 113 109 108 105 104 104 104 102 102 100 107 108 105 104 105 107 115 120
237 268 334 125 130 136 101 49 114 113 119 122 121 122 125 144 134 128 131 130 127 129 127 128 127 123 118 116 114 114 114 114 115 115 113 109 108 106 108 109 106 112 118 115 106 105 111 115 124
220 260 49 156 132 126 128 102 343 102 100 142 126 146 142 141 137 120 111 138 140 135 135 138 137 133 122 115 116 116 117 117 120 115 110 112 112 115 114 111 112 119 127 121 116 108 112 116 120
197 274 14 126 136 141 135 122 16 289 151 81 127 147 137 150 128 130 134 105 174 133 134 131 130 136 131 120 115 105 107 119 118 122 115 111 109 116 116 127 122 127 129 128 114 96 108 131 125
81 289 2 103 133 140 141 142 128 140 139 143 128 132 145 154 118 127 136 148 139 125 118 127 136 144 139 127 127 122 123 159 142 123 126 105 139 125 135 132 131 130 126 117 113 120 111 151 171
202 41 12 99 121 138 133 130 123 162 150 139 138 143 159 155 146 139 154 164 150 126 132 140 140 143 148 140 146 137 122 125 123 128 147 152 138 137 132 136 123 101 136 134 135 138 197 239 212
50 231 116 125 133 139 150 143 132 118 236 133 141 149 155 161 159 149 169 171 114 114 125 130 123 159 172 155 148 148 140 143 119 108 132 142 148 142 128 155 155 119 127 79 193 210 143 82 70
170 306 130 130 153 146 141 153 142 170 291 130 143 157 160 166 161 153 139 149 130 136 134 131 140 141 140 169 181 169 146 130 122 128 123 143 121 98 124 143 122 185 158 111 87 117 100 90 72
126 192 130 135 158 159 159 134 139 170 215 199 153 165 165 169 153 142 135 134 138 131 141 128 121 132 120 109 124 129 153 138 140 129 110 123 120 93 86 114 113 125 110 130 71 83 114 106 97
231 209 195 164 166 151 155 149 125 141 171 176 166 168 167 164 158 152 148 135 142 141 128 129 126 140 122 127 129 132 134 115 122 141 113 133 125 119 124 144 107 137 124 90 124 90 142 58 135
226 237 211 181 158 158 150 158 140 164 167 172 165 169 170 158 160 161 154 146 148 141 133 150 147 145 143 161 141 129 150 104 132 139 140 130 134 137 125 137 120 104 56 81 114 94 159 157 154
214 214 201 205 155 161 154 130 197 159 170 167 173 174 169 164 158 166 156 154 161 137 142 167 141 150 158 175 131 124 140 125 139 148 147 154 146 168 103 148 153 117 13 107 91 92 63 60 36
207 233 171 188 158 147 159 157 175 183 173 163 182 178 170 166 162 165 160 157 162 143 148 164 146 152 153 172 176 161 143 176 146 155 163 152 160 160 132 121 168 125 63 136 120 132 136 123 109
220 215 109 309 304 158 161 159 167 184 180 168 177 185 184 173 157 169 172 158 158 155 155 172 150 156 152 177 170 166 169 163 154 139 155 156 146 184 183 135 135 115 147 116 138 168 256 321 124
255 247 176 153 69 63 108 145 144 172 181 159 173 194 192 176 159 169 174 162 164 159 162 168 151 164 172 193 210 200 176 165 164 157 162 146 163 177 174 175 155 158 167 161 61 100 330 72 61
239 244 180 163 114 61 264 157 155 200 181 149 90 274 235 176 161 165 183 168 161 158 164 169 160 169 187 193 211 194 121 140 150 168 171 170 171 167 194 185 145 156 187 218 198 164 28 15 42
237 232 121 194 178 172 212 148 183 172 165 175 184 246 274 188 172 167 183 178 166 158 166 171 169 173 190 198 192 197 189 187 183 184 171 178 186 187 177 183 164 122 162 227 235 110 12 328 350
241 231 178 241 179 220 195 216 152 146 173 183 194 202 246 267 178 178 180 187 169 160 168 169 175 174 188 196 191 189 218 341 350 158 142 174 177 185 177 176 174 169 164 180 203 137 250 23 4
229 255 174 213 244 232 203 230 148 140 175 199 185 189 244 251 206 188 194 191 175 162 166 168 176 179 186 199 197 206 198 232 233 213 176 200 177 200 200 187 182 195 199 180 162 215 273 325 323
220 237 217 212 221 238 246 209 126 149 68 283 164 172 206 227 273 230 204 194 186 165 166 166 174 180 185 195 199 209 205 207 207 169 164 176 201 203 216 194 188 194 201 194 208 210 216 267 280
220 229 217 207 224 232 248 240 128 151 141 163 144 144 175 180 222 254 187 211 194 167 167 166 174 180 186 189 197 208 217 218 228 232 201 162 199 242 213 185 189 184 202 193 197 193 222 243 258
202 232 249 228 221 227 133 104 119 119 112 108 79 39 24 9 195 201 200 200 202 175 168 170 174 182 187 192 195 200 207 214 209 226 235 228 188 181 204 209 201 189 203 213 213 217 228 193 217
271 217 241 241 256 247 146 162 151 153 135 143 122 71 39 23 43 54 35 346 197 182 173 172 174 181 188 196 196 201 205 213 222 225 224 230 179 169 210 207 219 205 207 214 221 236 230 216 219
227 249 232 243 240 237 156 95 109 108 121 127 87 72 66 53 48 53 65 30 9 304 152 187 174 179 187 195 198 200 202 210 218 226 222 236 233 165 182 211 213 210 209 221 224 241 267 218 233
227 223 237 238 248 263 76 81 103 107 107 103 84 80 79 79 65 43 79 78 26 22 27 9 162 177 188 198 199 198 198 201 207 213 220 222 227 221 224 218 218 204 222 229 227 234 237 220 226